Kodiak, AK

1:46 PM AKDT on March 30, 2017 (GMT -0800)
Kodiak

Weather History for PADQ - May, 2013

Change the Weather History Date:

Wednesday, May 22, 2013

  Actual Average Record
Temperature  
Mean Temperature 46 °F 45 °F  
Max Temperature 49 °F 51 °F 69 °F (1991)
Min Temperature 43 °F 40 °F 30 °F (1985)
Degree Days  
Heating Degree Days 19 20  
Month to date heating degree days 517 474  
Since 1 July heating degree days 8387 8166  
Cooling Degree Days 0    
Month to date cooling degree days 0  
Year to date cooling degree days 0  
Moisture  
Dew Point 41 °F    
Average Humidity 0    
Maximum Humidity 0    
Minimum Humidity 0    
Precipitation  
Precipitation 0.21 in 0.19 in 2.70 in (2007)
Month to date precipitation 1.72 3.86  
Year to date precipitation 24.94 29.63  
Snow  
Snow 0.00 in 0.00 in T in (1975)
Month to date snowfall 0.9 0.2  
Snow Depth 0.00 in    
Sea Level Pressure  
Sea Level Pressure 30.16 in    
Wind  
Wind Speed 9 mph (South)    
Max Wind Speed 18 mph    
Max Gust Speed 22 mph    
Visibility 9 miles    
Events Rain    
T = Trace of Precipitation, MM = Missing Value Source: NWS Daily Summary

Daily Weather History Graph

Daily Weather History Graph

Search for Another Location

Airport or City:

Trip Planner

Search our weather history database for the weather conditions in past years. The results will help you decide how hot, cold, wet, or windy it might be!

Date:

Astronomy

May. 22, 2013 Rise Set
Actual Time 5:33 AM AKDT 10:41 PM AKDT
Civil Twilight 4:33 AM AKDT 11:41 PM AKDT
Nautical Twilight 2:39 AM AKDT 1:34 AM AKDT
Astronomical Twilight Sun does not rise Sun does not rise
Moon 7:47 PM AKDT (5/22) 4:21 AM AKDT (5/22)
Length of Visible Light 19h 07m
Length of Day
17h 08m
Waxing Gibbous, 92% of the Moon is Illuminated
May 22
Waxing Gibbous
May 24
Full
May 31
Last Quarter
Jun 8
New
Jun 16
First Quarter

Hourly Weather History & Observations

Time (AKDT) Temp. Windchill Dew Point Humidity Pressure Visibility Wind Dir Wind Speed Gust Speed Precip Events Conditions
12:53 AM 44.1 °F 40.8 °F 39.0 °F 82% 30.25 in 10.0 mi South 5.8 mph - 0.00 in   Overcast
1:53 AM 45.0 °F 39.7 °F 37.9 °F 76% 30.24 in 10.0 mi South 10.4 mph - 0.00 in   Overcast
2:53 AM 44.1 °F 40.1 °F 39.0 °F 82% 30.22 in 6.0 mi South 6.9 mph - 0.02 in Rain Light Rain
3:53 AM 44.1 °F 37.4 °F 39.0 °F 82% 30.21 in 10.0 mi South 13.8 mph 21.9 mph 0.02 in Rain Light Rain
4:53 AM 44.1 °F 37.7 °F 39.0 °F 82% 30.20 in 10.0 mi South 12.7 mph 19.6 mph 0.02 in Rain Light Rain
5:53 AM 44.1 °F 38.1 °F 37.9 °F 79% 30.20 in 10.0 mi South 11.5 mph - 0.00 in   Overcast
6:53 AM 44.1 °F 38.1 °F 37.9 °F 79% 30.19 in 10.0 mi South 11.5 mph - 0.00 in Rain Light Rain
7:53 AM 44.1 °F 39.0 °F 39.0 °F 82% 30.18 in 7.0 mi South 9.2 mph - 0.01 in Rain Light Rain
8:53 AM 45.0 °F 39.7 °F 39.9 °F 82% 30.17 in 10.0 mi South 10.4 mph - 0.02 in Rain Light Rain
9:53 AM 45.0 °F 41.2 °F 39.9 °F 82% 30.17 in 4.0 mi South 6.9 mph - 0.05 in Rain Light Rain
10:53 AM 46.0 °F 41.4 °F 39.9 °F 79% 30.17 in 8.0 mi South 9.2 mph - 0.04 in Rain Light Rain
11:53 AM 46.9 °F - 41.0 °F 80% 30.16 in 10.0 mi South 9.2 mph - 0.02 in Rain Light Rain
12:53 PM 46.9 °F - 41.0 °F 80% 30.15 in 10.0 mi South 5.8 mph - 0.00 in Rain Light Rain
1:53 PM 48.0 °F - 42.1 °F 80% 30.14 in 10.0 mi South 10.4 mph - 0.00 in   Overcast
2:53 PM 48.0 °F - 42.1 °F 80% 30.14 in 10.0 mi South 9.2 mph - 0.00 in   Overcast
3:53 PM 48.9 °F - 43.0 °F 80% 30.13 in 10.0 mi South 6.9 mph - N/A   Overcast
4:53 PM 48.0 °F - 43.0 °F 83% 30.13 in 10.0 mi SSE 4.6 mph - 0.00 in Rain Light Rain
5:53 PM 48.0 °F - 42.1 °F 80% 30.12 in 10.0 mi SE 8.1 mph - 0.00 in Rain Light Rain
6:53 PM 46.9 °F - 42.1 °F 83% 30.12 in 10.0 mi SE 12.7 mph - 0.01 in   Overcast
7:53 PM 46.9 °F - 42.1 °F 83% 30.11 in 10.0 mi South 10.4 mph - 0.00 in Rain Light Rain
8:53 PM 46.0 °F 41.9 °F 41.0 °F 83% 30.11 in 10.0 mi SE 8.1 mph - 0.00 in   Mostly Cloudy
9:53 PM 46.0 °F 41.9 °F 41.0 °F 83% 30.11 in 10.0 mi SE 8.1 mph - N/A   Mostly Cloudy
10:53 PM 45.0 °F 41.8 °F 41.0 °F 86% 30.12 in 10.0 mi SSE 5.8 mph - 0.00 in   Mostly Cloudy
11:53 PM 44.1 °F 42.5 °F 42.1 °F 93% 30.12 in 10.0 mi ENE 3.5 mph - N/A   Overcast